Regional Weather Roundup
Issued by NWS Goodland, KS

Home | Current Version | Previous Version | Graphics & Text | Print | Product List | Glossary On
Versions: 1 2 3 4 5 6 7 8 9 10 11 12 13 14 15 16 17 18 19 20 21 22 23 24 25 26 27 28 29 30 31 32 33 34 35 36 37 38 39 40 41 42 43 44 45 46 47 48 49 50
000
ASUS43 KGLD 040308
RWRGLD

GOODLAND FORECAST AREA HOURLY WEATHER ROUNDUP
NATIONAL WEATHER SERVICE GOODLAND KS
900 PM MDT TUE MAY 03 2016

...OFFICIAL OBSERVATIONS...

CITY           SKY/WX    TMP DP  RH WIND       PRES   REMARKS
GOODLAND KS    CLEAR     49  37  63 NW5       30.11R
HILL CITY KS   CLEAR     52  45  77 CALM      30.05S
IMPERIAL NEB   CLEAR     58  36  43 NW5       30.09R
MCCOOK NEB     CLEAR     53  39  59 W7        30.05R
AKRON CO       CLEAR     55  30  38 NE5       30.18R
BURLINGTON CO  CLEAR     50  35  56 NW3       30.15R
LIMON CO       CLEAR     41  38  89 N7        30.22R
$$

...UNOFFICIAL OBSERVATIONS...

CITY           SKY/WX    TMP DP  RH WIND       PRES   REMARKS
COLBY KS       CLEAR     48  45  87 W6        30.10S
NORTON KS      CLEAR     54  39  58 SW6       30.03S
SHARON SPRINGS   N/A     52  39  61 CALM        N/A
KIT CARSON CO    N/A     50  37  61 MISG        N/A
YUMA CO          N/A     55  35  47 CALM        N/A
$$




USA.gov is the U.S. government's official web portal to all federal, state and local government web resources and services.